sat.trackr.live / text

‹ back to catalog

STARLINK-34987

NORAD 65255 · 2025-179W

PAYLOAD ACTIVE UNKNOWN

§ Identity

Operator
Country
US
Launch date
2025-08-18
Launch site
AFWTR
Launch vehicle
Mass (kg)
RCS (m²)

Purposes: comms

External: N2YO · Heavens-Above · Gunter

§ Orbital elements

Epoch: 2026-09-20T20:02:31.585056Z

Period
93.91 min
Inclination
97.2843°
Eccentricity
0.0000872
Mean motion
15.33448308 rev/d
Perigee alt
464.9 km
Apogee alt
466.1 km
Semi-major
6,843.7 km
B*
3.1618e-4
RAAN
303.1429°
Arg perigee
107.5705°
Mean anomaly
252.5633°
Rev number
6,135

§ Raw data

STARLINK-349871 65255U 25179W   26263.83508779  .00010147  00000+0  31618-3 0  99972 65255  97.2843 303.1429 0000872 107.5705 252.5633 15.33448308 61352

JSON: /api/v1/satellites/65255 · /tle

For live sub-satellite position, see the globe view (requires WebGL).

§ Visibility from observer

Set your observer location to see the next 7 days of passes ≥ 10°. The values pass through the URL so the page stays shareable.

No JS? Fill the form by hand. The geolocation button needs JavaScript.